Regional Weather Roundup
Issued by NWS Goodland, KS

Home | Current Version | Previous Version | Text Only | Print | Product List | Glossary Off
Versions: 1 2 3 4 5 6 7 8 9 10 11 12 13 14 15 16 17 18 19 20 21 22 23 24 25 26 27 28 29 30 31 32 33 34 35 36 37 38 39 40 41 42 43 44 45 46 47 48 49 50

000
ASUS43 KGLD 300259
RWRGLD

GOODLAND FORECAST AREA HOURLY WEATHER ROUNDUP
NATIONAL WEATHER SERVICE GOODLAND KS
900 PM MDT SAT AUG 29 2015

...OFFICIAL OBSERVATIONS...

CITY           SKY/WX    TMP DP  RH WIND       PRES   REMARKS
GOODLAND KS    CLEAR     67  49  52 S10       30.13R
HILL CITY KS   CLEAR     68  54  60 E6        30.07R
IMPERIAL NEB   CLEAR     69  52  54 SE8       30.08R
MCCOOK NEB     CLEAR     72  55  55 SE8       30.07R
AKRON CO       CLEAR     71  45  39 S14       30.14R
BURLINGTON CO  CLEAR     67  45  45 S10       30.16R
LIMON CO       CLEAR     62  41  46 SE8       30.22R
$$

...UNOFFICIAL OBSERVATIONS...

CITY           SKY/WX    TMP DP  RH WIND       PRES   REMARKS
COLBY KS       CLEAR     72  54  53 SE8       30.12R
GOVE KS          N/A     70  32  24 MISG        N/A
LENORA KS        N/A     70  32  24 MISG        N/A
NORTON KS      CLEAR     68  52  56 SE6       30.07R
SHARON SPRINGS   N/A     70  50  49 SE7         N/A
TRENTON NEB      N/A     71  32  23 SE9         N/A
YUMA CO          N/A     67  46  46 CALM        N/A
$$



USA.gov is the U.S. government's official web portal to all federal, state and local government web resources and services.